#timestamp,LO_Frequency,Hit,StdDev 
1681855215.3,286046998.8,N
1681855235.1,286046998.6,N
1681855255.9,286046998.6,N
1681855275.7,286046998.7,N
1681855295.5,286047000.8,N
1681855315.4,286046999.0,N
1681855335.2,286046999.0,N
1681855355.0,286046999.4,N
1681855356.0,286046999.4,N
1681855375.8,286046998.7,N
1681855395.6,286046998.5,N
1681855415.5,286046999.4,N
1681855435.3,286046999.0,N
1681855455.1,286046999.6,N
1681855475.9,286046999.1,N
1681855495.7,286046997.5,N
1681855515.5,286046997.5,N
1681855535.4,286046997.8,N
1681855555.2,286046995.0,Y
1681855575.1,286046999.6,P
1681855576.0,286046999.6,N
1681855595.8,286046999.3,N
1681855615.6,286046999.5,N
1681855635.5,286046997.0,Y
1681855655.3,286046999.4,P
1681855675.1,286046997.1,P
1681855695.9,286046996.7,P
1681855715.7,286046996.6,N
1681855735.6,286046996.5,N
1681855755.4,286046996.6,N
1681855775.2,286046997.1,N
1681855795.1,286046996.8,N
1681855796.0,286046996.8,N
1681855815.8,286046996.9,N
1681855835.7,286046996.9,Y
1681855855.5,286047000.1,P
1681855875.3,286047000.5,N
1681855925.2,286047002.6,E
1681855935.1,286047001.2,N
1681855955.9,286047000.7,P
1681855975.7,286046998.7,P
1681855995.5,286046998.2,N
1681856015.4,286047000.6,N
1681856035.2,286047000.6,N
1681856055.0,286046996.9,N
1681856055.9,286046996.9,N
1681856075.8,286046996.6,N
1681856095.6,286046999.6,N
1681856115.5,286046998.8,N
1681856135.3,286046997.1,N
1681856155.1,286046996.9,N
1681856175.9,286046996.5,N
1681856195.7,286046997.2,N
1681856215.5,286046997.7,N
1681856235.4,286046997.5,N
1681856255.2,286046997.7,N
1681856275.1,286046997.9,N
1681856276.0,286046997.9,N
1681856295.8,286046998.0,N
1681856315.6,286046997.7,N
1681856335.5,286046997.9,N
1681856355.3,286046997.2,N
1681856375.2,286046997.6,N
1681856395.9,286046997.8,N
1681856415.7,286046997.8,N
1681856435.6,286046996.7,N
1681856455.4,286046999.5,N
1681856475.2,286046997.1,N
1681856495.1,286046997.9,N
1681856496.0,286046997.9,N
1681856515.8,286046997.4,N
1681856535.7,286046996.7,Y
1681856555.5,286047000.7,P
1681856575.3,286047000.0,N
1681856595.2,286047000.0,N
1681856615.0,286047001.0,N
1681856615.9,286047001.0,N
1681856635.7,286047000.7,N
1681856655.6,286046998.8,N
1681856675.4,286046998.4,N
1681856695.3,286046998.6,N
1681856715.1,286046998.4,N
1681856716.0,286046998.4,N
1681856735.8,286047001.2,N
1681856755.7,286047000.2,N
1681856775.5,286047000.7,N
1681856795.3,286047002.8,N
1681856815.2,286046998.9,N
1681856835.0,286046999.1,N
1681856835.9,286046999.1,N
1681856855.7,286046999.5,N
1681856875.6,286046996.6,N
1681856895.4,286046999.6,N
1681856915.3,286046998.4,N
1681856935.1,286046998.5,N
1681856936.0,286046998.5,N
1681856955.8,286046998.3,N
1681856975.7,286047001.0,N
1681856995.5,286046998.8,N
1681857015.3,286046998.8,N
1681857035.2,286047000.8,N
1681857055.0,286047000.8,N
1681857055.9,286047000.8,N
1681857075.8,286047002.1,N
1681857095.6,286047002.4,N
1681857115.4,286047002.1,N
1681857135.3,286047002.5,N
1681857155.1,286046998.2,N
1681857175.8,286047001.2,N
1681857195.7,286046998.8,N
1681857215.5,286046998.2,N
1681857235.4,286046998.1,N
1681857255.2,286046998.1,N
1681857275.0,286046999.0,N
1681857275.9,286046999.0,N
1681857295.8,286046998.3,N
1681857315.6,286046996.5,N
1681857335.4,286046996.6,N
1681857355.3,286046996.5,N
1681857375.1,286046999.6,N
1681857395.9,286046998.6,N
1681857415.7,286047000.6,N
1681857435.5,286047002.0,N
1681857455.4,286047002.6,N
1681857475.2,286047001.6,N
1681857495.0,286047002.5,N
1681857495.9,286047002.5,N
1681857515.8,286047001.7,N
1681857535.6,286047000.2,N
1681857555.5,286047000.0,N
1681857575.3,286047002.3,N
1681857595.1,286047002.8,N
1681857615.9,286047002.5,N
1681857635.7,286047002.5,N
1681857655.5,286047001.9,N
1681857675.4,286047001.9,N
1681857695.2,286046999.8,N
1681857715.1,286046999.9,N
1681857716.0,286046999.9,N
1681857735.8,286047002.7,N
1681857755.6,286047002.5,N
1681857775.5,286047002.3,N
1681857795.3,286047000.4,N
1681857815.1,286047001.2,N
1681857835.9,286046998.5,N
1681857855.7,286046998.7,N
1681857875.5,286046999.4,N
1681857895.4,286046998.6,N
1681857915.2,286047000.3,N
1681857935.1,286047000.9,N
1681857936.0,286047000.9,N
1681857955.8,286047000.7,N
1681857975.6,286047000.3,N
1681857995.5,286047002.7,N
1681858015.3,286047001.5,N
1681858035.1,286047004.0,N
1681858055.9,286047003.9,N
1681858075.7,286047003.2,N
1681858095.6,286047005.3,Y
1681858115.4,286047004.1,P
1681858135.2,286047003.1,N
1681858155.1,286047001.4,N
1681858156.0,286047001.4,N
1681858175.8,286046999.7,N
1681858195.6,286047002.2,N
1681858215.5,286047000.0,N
1681858235.3,286047000.5,N
1681858255.2,286047000.0,N
1681858275.9,286047000.4,N
1681858295.7,286047000.1,N
1681858315.6,286046999.8,N
1681858335.4,286047000.2,N
1681858355.2,286047000.6,N
1681858375.1,286046998.6,N
1681858376.0,286046998.6,N
1681858395.8,286047000.8,N
1681858415.7,286046998.4,N
1681858435.5,286047000.9,N
1681858455.3,286047000.9,N
1681858475.2,286047001.0,N
1681858495.0,286046999.0,N
1681858495.9,286046999.0,N
1681858515.8,286046998.1,N
1681858535.6,286047001.1,N
1681858555.4,286047011.9,Y
1681858575.3,286046999.8,P
1681858595.1,286047002.7,P
1681858615.8,286046999.8,N
1681858635.7,286047001.2,N
1681858655.5,286047000.0,N
1681858675.4,286047002.8,N
1681858695.2,286047002.2,N
1681858715.0,286047004.3,Y
1681858715.9,286047004.3,P
1681858735.8,286047000.2,N
1681858755.6,286047000.8,N
1681858775.5,286047000.3,N
1681858795.3,286047000.9,N
